Dades meteomassalio
Diari Summary for Gener 23, 2017 Units:  Metric    English   Both
« Previous Day
Next Day »
Diari Semanal Mensual Anual Personalitzat
  Maxima: Minima: Mijana:
Temperatura: -17.8 °C -15.2 °C -13.9 °C
Rosada: -17.8 °C -17.1 °C -16.2 °C
Humitat: Humidity % 60 % 76 %
Velocitat del vent: 0 km/h 0 km/h 17.2 km/h
Racha vent: 0 km/h - -
Vent:- - WNW
Pressio: 0 hPa 34496.6 hPa -
Pluja: 38.1 mm    
Historical Graphs
 
 
Tabular Data for Gener 23, 2017
Time Temperature Dew Point Pressure Wind Wind Speed Wind Gust Humidity Rainfall Rate (Hourly) solar Conditions
-17.8 °C -17.8 °C 0 hPa Calm     Humidity % 0 mm SolarRadiationWatts/m^2 W/m2 Conditions
00:02 -14.6 °C -15.8 °C 34544 hPa WNW 32.8 km/h 32.8 km/h 85 % 0 mm 0.0 W/m2 RA
00:07 -14.6 °C -15.8 °C 34544 hPa WNW 23.8 km/h 23.8 km/h 85 % 0 mm 0.0 W/m2 CLR
00:12 -14.6 °C -15.8 °C 34544 hPa WNW 20.9 km/h 20.9 km/h 86 % 0 mm 0.0 W/m2 CLR
00:17 -14.6 °C -15.8 °C 34544 hPa WNW 26.9 km/h 26.9 km/h 86 % 0 mm 0.0 W/m2 CLR
00:22 -14.6 °C -15.8 °C 34544 hPa WNW 17.9 km/h 17.9 km/h 86 % 0 mm 0.0 W/m2 CLR
00:27 -14.6 °C -15.8 °C 34533.8 hPa WNW 35.7 km/h 35.7 km/h 85 % 0 mm 0.0 W/m2 CLR
00:28 -14.6 °C -15.8 °C 34533.8 hPa WNW 35.7 km/h 35.7 km/h 85 % 0 mm 0.0 W/m2 CLR
00:33 -14.5 °C -15.9 °C 34533.8 hPa WNW 32.8 km/h 32.8 km/h 84 % 0 mm 0.0 W/m2 CLR
00:38 -14.4 °C -15.8 °C 34533.8 hPa WNW 31.1 km/h 31.1 km/h 84 % 0 mm 0.0 W/m2 CLR
00:43 -14.4 °C -15.9 °C 34544 hPa West 32.8 km/h 32.8 km/h 83 % 0 mm 0.0 W/m2 CLR
00:48 -14.5 °C -15.9 °C 34544 hPa WNW 20.9 km/h 20.9 km/h 84 % 0 mm 0.0 W/m2 CLR
00:53 -14.5 °C -15.9 °C 34544 hPa West 12.9 km/h 12.9 km/h 84 % 0 mm 0.0 W/m2 CLR
00:58 -14.6 °C -15.9 °C 34544 hPa West 12.9 km/h 12.9 km/h 84 % 0 mm 0.0 W/m2 CLR
01:03 -14.6 °C -15.9 °C 34544 hPa Calm     84 % 0 mm 0.0 W/m2 CLR
01:08 -14.6 °C -15.9 °C 34544 hPa Calm     84 % 0 mm 0.0 W/m2 CLR
01:13 -14.6 °C -15.8 °C 34544 hPa Calm     85 % 7.62 mm 0.0 W/m2 RA
01:18 -14.6 °C -15.9 °C 34544 hPa Calm     85 % 12.7 mm 0.0 W/m2 RA
01:23 -14.6 °C -15.9 °C 34544 hPa Calm     85 % 12.7 mm 0.0 W/m2 CLR
01:28 -14.7 °C -15.9 °C 34544 hPa Calm     86 % 12.7 mm 0.0 W/m2 CLR
01:33 -14.7 °C -15.8 °C 34544 hPa Calm     87 % 12.7 mm 0.0 W/m2 CLR
01:38 -14.8 °C -15.9 °C 34533.8 hPa Calm     87 % 12.7 mm 0.0 W/m2 CLR
01:43 -14.8 °C -15.8 °C 34533.8 hPa Calm     88 % 12.7 mm 0.0 W/m2 CLR
01:48 -14.9 °C -15.9 °C 34533.8 hPa Calm     88 % 12.7 mm 0.0 W/m2 CLR
01:53 -14.9 °C -15.8 °C 34533.8 hPa Calm     89 % 12.7 mm 0.0 W/m2 CLR
01:58 -14.9 °C -15.9 °C 34544 hPa Calm     89 % 12.7 mm 0.0 W/m2 CLR
02:03 -14.9 °C -15.9 °C 34533.8 hPa Calm     89 % 12.7 mm 0.0 W/m2 CLR
02:08 -15 °C -15.8 °C 34533.8 hPa Calm     90 % 12.7 mm 0.0 W/m2 CLR
02:13 -15.1 °C -15.9 °C 34533.8 hPa Calm     90 % 7.62 mm 0.0 W/m2 CLR
02:18 -15.1 °C -15.9 °C 34533.8 hPa Calm     90 % 0 mm 0.0 W/m2 CLR
02:23 -15.1 °C -15.9 °C 34533.8 hPa Calm     90 % 0 mm 0.0 W/m2 CLR
02:28 -15.1 °C -15.9 °C 34533.8 hPa Calm     90 % 0 mm 0.0 W/m2 CLR
02:33 -15.1 °C -15.9 °C 34533.8 hPa Calm     90 % 0 mm 0.0 W/m2 CLR
02:38 -15 °C -15.8 °C 34520.3 hPa Calm     90 % 0 mm 0.0 W/m2 CLR
02:43 -15 °C -15.8 °C 34533.8 hPa Calm     90 % 0 mm 0.0 W/m2 CLR
02:48 -14.9 °C -15.8 °C 34520.3 hPa Calm     90 % 0 mm 0.0 W/m2 CLR
02:53 -14.9 °C -15.9 °C 34520.3 hPa Calm     89 % 0 mm 0.0 W/m2 CLR
02:58 -14.9 °C -15.9 °C 34520.3 hPa Calm     89 % 0 mm 0.0 W/m2 CLR
03:03 -14.9 °C -15.9 °C 34520.3 hPa Calm     88 % 0 mm 0.0 W/m2 CLR
03:08 -14.9 °C -15.9 °C 34520.3 hPa Calm     88 % 0 mm 0.0 W/m2 CLR
03:13 -14.9 °C -16 °C 34520.3 hPa Calm     88 % 0 mm 0.0 W/m2 CLR
03:18 -14.9 °C -16 °C 34520.3 hPa Calm     88 % 0 mm 0.0 W/m2 CLR
03:23 -14.9 °C -16 °C 34520.3 hPa Calm     88 % 0 mm 0.0 W/m2 CLR
03:28 -14.9 °C -16 °C 34520.3 hPa Calm     88 % 0 mm 0.0 W/m2 CLR
03:33 -15 °C -16.1 °C 34520.3 hPa Calm     87 % 0 mm 0.0 W/m2 CLR
03:38 -15.1 °C -16.1 °C 34520.3 hPa Calm     88 % 0 mm 0.0 W/m2 CLR
03:43 -15.1 °C -16.1 °C 34520.3 hPa Calm     88 % 0 mm 0.0 W/m2 CLR
03:48 -15.1 °C -16.2 °C 34520.3 hPa Calm     88 % 0 mm 0.0 W/m2 CLR
03:53 -15.1 °C -16.2 °C 34520.3 hPa Calm     88 % 0 mm 0.0 W/m2 CLR
03:58 -15.1 °C -16.1 °C 34520.3 hPa Calm     88 % 0 mm 0.0 W/m2 CLR
04:03 -15.1 °C -16.2 °C 34520.3 hPa Calm     88 % 0 mm 0.0 W/m2 CLR
04:08 -15.2 °C -16.2 °C 34520.3 hPa Calm     88 % 0 mm 0.0 W/m2 CLR
04:13 -15.2 °C -16.2 °C 34520.3 hPa Calm     88 % 0 mm 0.0 W/m2 CLR
04:18 -15.2 °C -16.2 °C 34520.3 hPa Calm     88 % 0 mm 0.0 W/m2 CLR
04:23 -15.2 °C -16.2 °C 34520.3 hPa Calm     88 % 0 mm 0.0 W/m2 CLR
04:28 -15.2 °C -16.2 °C 34520.3 hPa Calm     88 % 0 mm 0.0 W/m2 CLR
04:33 -15.2 °C -16.2 °C 34510.1 hPa Calm     88 % 0 mm 0.0 W/m2 CLR
04:38 -15.1 °C -16.2 °C 34510.1 hPa Calm     88 % 0 mm 0.0 W/m2 CLR
04:43 -15.1 °C -16.2 °C 34510.1 hPa Calm     87 % 0 mm 0.0 W/m2 CLR
04:48 -15.1 °C -16.2 °C 34510.1 hPa Calm     87 % 0 mm 0.0 W/m2 CLR
04:53 -15.1 °C -16.2 °C 34510.1 hPa Calm     87 % 0 mm 0.0 W/m2 CLR
04:58 -15.1 °C -16.2 °C 34510.1 hPa Calm     87 % 0 mm 0.0 W/m2 CLR
05:03 -15.1 °C -16.3 °C 34520.3 hPa Calm     86 % 0 mm 0.0 W/m2 CLR
05:08 -15.1 °C -16.2 °C 34510.1 hPa Calm     87 % 0 mm 0.0 W/m2 CLR
05:13 -15.1 °C -16.2 °C 34520.3 hPa Calm     87 % 0 mm 0.0 W/m2 CLR
05:18 -15.1 °C -16.3 °C 34520.3 hPa Calm     86 % 0 mm 0.0 W/m2 CLR
05:23 -15.1 °C -16.3 °C 34520.3 hPa Calm     86 % 0 mm 0.0 W/m2 CLR
05:28 -14.9 °C -16.3 °C 34520.3 hPa Calm     85 % 0 mm 0.0 W/m2 CLR
05:33 -14.9 °C -16.3 °C 34520.3 hPa Calm     85 % 0 mm 0.0 W/m2 CLR
05:39 -14.9 °C -16.3 °C 34510.1 hPa Calm     84 % 0 mm 0.0 W/m2 CLR
05:44 -14.9 °C -16.3 °C 34510.1 hPa Calm     84 % 0 mm 0.0 W/m2 CLR
05:49 -14.9 °C -16.3 °C 34510.1 hPa Calm     84 % 0 mm 0.0 W/m2 CLR
05:54 -14.9 °C -16.3 °C 34510.1 hPa WSW 6 km/h 6 km/h 84 % 0 mm 0.0 W/m2 CLR
05:59 -15 °C -16.4 °C 34510.1 hPa WSW 15.6 km/h 15.6 km/h 84 % 0 mm 0.0 W/m2 CLR
06:04 -14.9 °C -16.3 °C 34510.1 hPa WSW 9 km/h 9 km/h 84 % 0 mm 0.0 W/m2 CLR
06:09 -14.9 °C -16.3 °C 34520.3 hPa Calm     84 % 0 mm 0.0 W/m2 CLR
06:14 -15 °C -16.4 °C 34520.3 hPa Calm     84 % 0 mm 0.0 W/m2 CLR
06:19 -15 °C -16.5 °C 34520.3 hPa SW 9 km/h 9 km/h 83 % 0 mm 0.0 W/m2 CLR
06:24 -14.9 °C -16.4 °C 34510.1 hPa WSW 15 km/h 15 km/h 83 % 0 mm 0.0 W/m2 CLR
06:29 -14.9 °C -16.5 °C 34520.3 hPa WSW 17.9 km/h 17.9 km/h 82 % 0 mm 0.0 W/m2 CLR
06:34 -14.9 °C -16.5 °C 34510.1 hPa WSW 9 km/h 9 km/h 82 % 0 mm 0.0 W/m2 CLR
06:39 -14.9 °C -16.5 °C 34510.1 hPa WSW 20.8 km/h 20.8 km/h 82 % 0 mm 0.0 W/m2 CLR
06:44 -14.9 °C -16.4 °C 34520.3 hPa Calm     83 % 0 mm 0.0 W/m2 CLR
06:49 -14.9 °C -16.4 °C 34533.8 hPa Calm     83 % 0 mm 0.0 W/m2 CLR
06:54 -15 °C -16.5 °C 34544 hPa Calm     83 % 0 mm 0.0 W/m2 CLR
06:59 -15 °C -16.4 °C 34544 hPa Calm     84 % 0 mm 0.0 W/m2 CLR
07:04 -15.1 °C -16.4 °C 34544 hPa Calm     84 % 0 mm 0.0 W/m2 CLR
07:09 -15.1 °C -16.4 °C 34544 hPa Calm     84 % 0 mm 0.0 W/m2 CLR
07:14 -15.1 °C -16.4 °C 34544 hPa Calm     84 % 0 mm 0.0 W/m2 CLR
07:19 -15.1 °C -16.4 °C 34544 hPa Calm     84 % 0 mm 0.0 W/m2 CLR
07:24 -15.1 °C -16.4 °C 34554.1 hPa Calm     84 % 0 mm 0.0 W/m2 CLR
07:29 -15.1 °C -16.5 °C 34554.1 hPa Calm     84 % 0 mm 0.0 W/m2 CLR
07:34 -15.1 °C -16.5 °C 34554.1 hPa Calm     84 % 0 mm 0.0 W/m2 CLR
07:39 -15.1 °C -16.4 °C 34554.1 hPa Calm     84 % 0 mm 0.0 W/m2 CLR
07:44 -15.1 °C -16.4 °C 34554.1 hPa Calm     84 % 0 mm 0.0 W/m2 CLR
07:49 -15.1 °C -16.4 °C 34567.7 hPa Calm     84 % 0 mm 0.0 W/m2 CLR
07:54 -15.1 °C -16.4 °C 34567.7 hPa Calm     84 % 0 mm 0.0 W/m2 CLR
07:59 -15.1 °C -16.4 °C 34567.7 hPa Calm     84 % 0 mm 0.0 W/m2 CLR
08:04 -15.1 °C -16.4 °C 34567.7 hPa Calm     84 % 0 mm 0.0 W/m2 CLR
08:09 -15.1 °C -16.4 °C 34567.7 hPa Calm     84 % 7.62 mm 0.0 W/m2 RA
08:14 -15.1 °C -16.4 °C 34567.7 hPa West 26.9 km/h 26.9 km/h 84 % 7.62 mm 0.0 W/m2
08:19 -15.1 °C -16.4 °C 34567.7 hPa West 17.9 km/h 17.9 km/h 84 % 12.7 mm 0.0 W/m2 RA
08:24 -15.1 °C -16.3 °C 34567.7 hPa Calm     85 % 12.7 mm 0.0 W/m2
08:29 -15.1 °C -16.3 °C 34567.7 hPa Calm     86 % 12.7 mm 12.0 W/m2 BKN
08:34 -15.2 °C -16.3 °C 34567.7 hPa Calm     87 % 12.7 mm 26.0 W/m2 BKN
08:39 -15.2 °C -16.3 °C 34567.7 hPa WSW 17.9 km/h 17.9 km/h 87 % 12.7 mm 30.0 W/m2 BKN
08:44 -15.2 °C -16.3 °C 34567.7 hPa WNW 23.8 km/h 23.8 km/h 87 % 12.7 mm 25.0 W/m2 BKN
08:49 -15.1 °C -16.2 °C 34567.7 hPa WNW 20.9 km/h 20.9 km/h 87 % 12.7 mm 23.0 W/m2 BKN
08:54 -15.1 °C -16.2 °C 34567.7 hPa WNW 26.9 km/h 26.9 km/h 87 % 12.7 mm 21.0 W/m2 BKN
08:59 -15.1 °C -16.2 °C 34567.7 hPa WNW 20.9 km/h 20.9 km/h 87 % 12.7 mm 23.0 W/m2 RA
09:04 -15.1 °C -16.2 °C 34567.7 hPa WNW 29.8 km/h 29.8 km/h 87 % 12.7 mm 33.0 W/m2 BKN
09:09 -15.1 °C -16.2 °C 34567.7 hPa West 29.8 km/h 29.8 km/h 86 % 12.7 mm 37.0 W/m2 BKN
09:14 -15 °C -16.1 °C 34567.7 hPa WNW 26.9 km/h 26.9 km/h 87 % 12.7 mm 44.0 W/m2 BKN
09:19 -15 °C -16.1 °C 34567.7 hPa WNW 32.8 km/h 32.8 km/h 87 % 7.62 mm 58.0 W/m2 BKN
09:24 -15 °C -16.1 °C 34567.7 hPa WNW 29.8 km/h 29.8 km/h 87 % 7.62 mm 70.0 W/m2 BKN
09:29 -14.9 °C -16.1 °C 34577.8 hPa WNW 31.1 km/h 31.1 km/h 87 % 7.62 mm 77.0 W/m2 BKN
09:34 -14.9 °C -16.1 °C 34577.8 hPa WNW 26.9 km/h 26.9 km/h 86 % 7.62 mm 69.0 W/m2 BKN
09:39 -14.8 °C -16.1 °C 34567.7 hPa WNW 29.8 km/h 29.8 km/h 86 % 7.62 mm 69.0 W/m2 BKN
09:44 -14.8 °C -16.1 °C 34577.8 hPa WNW 29.8 km/h 29.8 km/h 85 % 7.62 mm 62.0 W/m2 BKN
09:49 -14.8 °C -16.1 °C 34577.8 hPa WNW 29.8 km/h 29.8 km/h 85 % 7.62 mm 69.0 W/m2 BKN
09:54 -14.7 °C -16 °C 34567.7 hPa WNW 29.8 km/h 29.8 km/h 85 % 7.62 mm 74.0 W/m2 BKN
09:59 -14.7 °C -16 °C 34567.7 hPa West 32.8 km/h 32.8 km/h 85 % 0 mm 90.0 W/m2 BKN
10:04 -14.7 °C -16.1 °C 34577.8 hPa WNW 32.8 km/h 32.8 km/h 84 % 0 mm 88.0 W/m2 BKN
10:09 -14.6 °C -16.1 °C 34567.7 hPa WNW 29.8 km/h 29.8 km/h 83 % 0 mm 142.0 W/m2 BKN
10:14 -14.5 °C -16.1 °C 34567.7 hPa West 33.6 km/h 33.6 km/h 82 % 0 mm 125.0 W/m2 BKN
10:19 -14.4 °C -16 °C 34567.7 hPa West 41.7 km/h 41.7 km/h 82 % 0 mm 83.0 W/m2 BKN
10:24 -14.4 °C -16 °C 34577.8 hPa WNW 29.8 km/h 29.8 km/h 82 % 0 mm 97.0 W/m2 BKN
10:29 -14.4 °C -16.1 °C 34577.8 hPa WNW 32.8 km/h 32.8 km/h 81 % 0 mm 109.0 W/m2 BKN
10:34 -14.4 °C -16 °C 34577.8 hPa WNW 31.1 km/h 31.1 km/h 82 % 0 mm 155.0 W/m2 BKN
10:39 -14.3 °C -16 °C 34577.8 hPa WNW 41.4 km/h 41.4 km/h 81 % 0 mm 174.0 W/m2 BKN
10:44 -14.3 °C -15.9 °C 34567.7 hPa WNW 36.2 km/h 36.2 km/h 81 % 0 mm 216.0 W/m2 BKN
10:49 -14.2 °C -15.9 °C 34577.8 hPa WNW 36.2 km/h 36.2 km/h 81 % 0 mm 246.0 W/m2 BKN
10:54 -14.1 °C -15.9 °C 34577.8 hPa WNW 32.8 km/h 32.8 km/h 80 % 0 mm 162.0 W/m2 SCT
10:59 -14.1 °C -15.9 °C 34567.7 hPa WNW 32.8 km/h 32.8 km/h 80 % 0 mm 155.0 W/m2 BKN
11:04 -14.1 °C -16 °C 34577.8 hPa WNW 29.8 km/h 29.8 km/h 79 % 0 mm 144.0 W/m2 BKN
11:09 -14.1 °C -16 °C 34577.8 hPa WNW 36.2 km/h 36.2 km/h 79 % 0 mm 163.0 W/m2 BKN
11:14 -14.1 °C -15.9 °C 34577.8 hPa WNW 29.8 km/h 29.8 km/h 79 % 0 mm 114.0 W/m2 BKN
11:19 -14.1 °C -16 °C 34577.8 hPa WNW 32.8 km/h 32.8 km/h 78 % 0 mm 100.0 W/m2 BKN
11:24 -14 °C -16 °C 34577.8 hPa WNW 38.8 km/h 38.8 km/h 78 % 0 mm 107.0 W/m2 BKN
11:29 -13.9 °C -15.9 °C 34577.8 hPa WNW 26.9 km/h 26.9 km/h 78 % 0 mm 130.0 W/m2 BKN
11:34 -13.9 °C -15.9 °C 34577.8 hPa WNW 29.8 km/h 29.8 km/h 78 % 0 mm 139.0 W/m2 BKN
11:40 -13.8 °C -16 °C 34577.8 hPa WNW 41.7 km/h 41.7 km/h 76 % 0 mm 135.0 W/m2 BKN
11:44 -13.8 °C -16.1 °C 34577.8 hPa WNW 35.7 km/h 35.7 km/h 75 % 0 mm 125.0 W/m2 BKN
11:50 -13.8 °C -15.9 °C 34577.8 hPa WNW 26.9 km/h 26.9 km/h 76 % 0 mm 158.0 W/m2 BKN
11:55 -13.7 °C -15.9 °C 34577.8 hPa WNW 29.8 km/h 29.8 km/h 76 % 0 mm 162.0 W/m2 BKN
12:00 -13.7 °C -15.9 °C 34567.7 hPa WNW 29.8 km/h 29.8 km/h 76 % 0 mm 155.0 W/m2 BKN
12:05 -13.7 °C -16 °C 34567.7 hPa WNW 38.8 km/h 38.8 km/h 75 % 0 mm 142.0 W/m2 BKN
12:10 -13.7 °C -16 °C 34567.7 hPa WNW 32.8 km/h 32.8 km/h 75 % 0 mm 148.0 W/m2 BKN
12:15 -13.7 °C -16 °C 34567.7 hPa WNW 29.8 km/h 29.8 km/h 75 % 0 mm 158.0 W/m2 BKN
12:20 -13.7 °C -15.9 °C 34567.7 hPa WNW 23.8 km/h 23.8 km/h 75 % 0 mm 148.0 W/m2 BKN
12:25 -13.6 °C -16 °C 34567.7 hPa WNW 29.8 km/h 29.8 km/h 74 % 0 mm 160.0 W/m2 BKN
12:30 -13.6 °C -16 °C 34567.7 hPa WNW 26.9 km/h 26.9 km/h 74 % 0 mm 171.0 W/m2 BKN
12:35 -13.6 °C -16 °C 34567.7 hPa NW 31.1 km/h 31.1 km/h 74 % 0 mm 158.0 W/m2 BKN
12:40 -13.6 °C -16.1 °C 34567.7 hPa WNW 26.9 km/h 26.9 km/h 73 % 0 mm 135.0 W/m2 BKN
12:45 -13.6 °C -16.1 °C 34567.7 hPa WNW 26.9 km/h 26.9 km/h 73 % 0 mm 123.0 W/m2 BKN
12:50 -13.6 °C -16.2 °C 34554.1 hPa WNW 11.9 km/h   72 % 0 mm 144.0 W/m2 BKN
12:55 -13.6 °C -16.1 °C 34554.1 hPa Calm     73 % 0 mm 197.0 W/m2 BKN
13:00 -13.5 °C -16 °C 34554.1 hPa NW 35.7 km/h 35.7 km/h 73 % 0 mm 248.0 W/m2 BKN
13:05 -13.4 °C -16 °C 34554.1 hPa WNW 23.8 km/h 23.8 km/h 73 % 0 mm 216.0 W/m2 BKN
13:10 -13.4 °C -16 °C 34554.1 hPa West 26.9 km/h 26.9 km/h 72 % 0 mm 183.0 W/m2 BKN
13:15 -13.4 °C -16.1 °C 34554.1 hPa NW 38.8 km/h 38.8 km/h 71 % 0 mm 176.0 W/m2 BKN
13:20 -13.3 °C -15.9 °C 34544 hPa NW 29.8 km/h 29.8 km/h 73 % 0 mm 241.0 W/m2 BKN
13:25 -13.3 °C -15.9 °C 34544 hPa WNW 29.8 km/h 29.8 km/h 72 % 0 mm 285.0 W/m2 BKN
13:30 -13.3 °C -16 °C 34544 hPa WNW 26.9 km/h 26.9 km/h 71 % 0 mm 264.0 W/m2 SCT
13:35 -13.2 °C -16 °C 34533.8 hPa WNW 15.6 km/h 15.6 km/h 71 % 0 mm 230.0 W/m2 SCT
13:40 -13.2 °C -15.8 °C 34533.8 hPa WNW 29.8 km/h 29.8 km/h 72 % 0 mm 322.0 W/m2 SCT
13:45 -13.1 °C -15.8 °C 34520.3 hPa WNW 23.8 km/h 23.8 km/h 72 % 0 mm 262.0 W/m2 SCT
13:50 -13.1 °C -15.7 °C 34520.3 hPa WNW 20.9 km/h 20.9 km/h 72 % 0 mm 211.0 W/m2 SCT
13:55 -13.1 °C -15.7 °C 34520.3 hPa West 23.8 km/h 23.8 km/h 72 % 0 mm 230.0 W/m2 BKN
14:00 -13 °C -15.9 °C 34520.3 hPa WNW 23.8 km/h 23.8 km/h 70 % 0 mm 234.0 W/m2 BKN
14:05 -13 °C -15.7 °C 34520.3 hPa WNW 20.9 km/h 20.9 km/h 72 % 0 mm 244.0 W/m2 SCT
14:10 -13 °C -16 °C 34510.1 hPa WNW 26.9 km/h 26.9 km/h 69 % 0 mm 221.0 W/m2 SCT
14:15 -12.9 °C -15.8 °C 34510.1 hPa WNW 23.8 km/h 23.8 km/h 70 % 0 mm 262.0 W/m2 SCT
14:20 -12.9 °C -15.7 °C 34510.1 hPa WNW 23.8 km/h 23.8 km/h 71 % 0 mm 267.0 W/m2 SCT
14:25 -12.8 °C -15.8 °C 34510.1 hPa NW 23.8 km/h 23.8 km/h 69 % 0 mm 232.0 W/m2 SCT
14:30 -12.8 °C -15.8 °C 34510.1 hPa NW 29.8 km/h 29.8 km/h 69 % 0 mm 345.0 W/m2 SCT
14:35 -12.8 °C -15.8 °C 34496.6 hPa NW 26.9 km/h 26.9 km/h 69 % 0 mm 316.0 W/m2 FEW
14:40 -12.7 °C -15.9 °C 34496.6 hPa WNW 29.8 km/h 29.8 km/h 67 % 0 mm 334.0 W/m2 CLR
14:45 -12.6 °C -15.7 °C 34496.6 hPa WNW 29.8 km/h 29.8 km/h 68 % 0 mm 299.0 W/m2 CLR
14:50 -12.6 °C -15.7 °C 34510.1 hPa WNW 23.8 km/h 23.8 km/h 68 % 0 mm 202.0 W/m2 FEW
14:55 -12.6 °C -15.5 °C 34510.1 hPa WNW 20.9 km/h 20.9 km/h 70 % 0 mm 209.0 W/m2 SCT
15:00 -12.7 °C -15.8 °C 34510.1 hPa NW 28.5 km/h 28.5 km/h 68 % 0 mm 232.0 W/m2 SCT
15:05 -12.7 °C -15.8 °C 34496.6 hPa NW 29.8 km/h 29.8 km/h 68 % 0 mm 206.0 W/m2 SCT
15:10 -12.7 °C -15.7 °C 34496.6 hPa NW 15 km/h 15 km/h 69 % 0 mm 174.0 W/m2 SCT
15:15 -12.7 °C -15.8 °C 34496.6 hPa WNW 23.8 km/h 23.8 km/h 68 % 0 mm 178.0 W/m2 SCT
15:20 -12.7 °C -15.7 °C 34496.6 hPa NW 15 km/h 15 km/h 69 % 0 mm 181.0 W/m2 SCT
15:25 -12.6 °C -15.7 °C 34496.6 hPa NW 20.9 km/h 20.9 km/h 68 % 0 mm 167.0 W/m2 SCT
15:30 -12.6 °C -15.8 °C 34496.6 hPa WNW 17.9 km/h 17.9 km/h 67 % 0 mm 174.0 W/m2 SCT
15:35 -12.6 °C -15.9 °C 34496.6 hPa WNW 35.7 km/h 35.7 km/h 66 % 0 mm 190.0 W/m2 SCT
15:40 -12.6 °C -15.9 °C 34496.6 hPa NW 29.8 km/h 29.8 km/h 66 % 0 mm 172.0 W/m2 FEW
15:45 -12.6 °C -15.8 °C 34496.6 hPa NW 23.8 km/h 23.8 km/h 67 % 0 mm 148.0 W/m2 FEW
15:50 -12.6 °C -15.7 °C 34496.6 hPa WNW 25.9 km/h 25.9 km/h 68 % 0 mm 118.0 W/m2 SCT
15:55 -12.6 °C -15.7 °C 34496.6 hPa WNW 23.8 km/h 23.8 km/h 68 % 0 mm 132.0 W/m2 SCT
16:00 -12.6 °C -15.8 °C 34496.6 hPa WNW 26.9 km/h 26.9 km/h 67 % 0 mm 153.0 W/m2 FEW
16:05 -12.6 °C -15.8 °C 34496.6 hPa WNW 23.8 km/h 23.8 km/h 67 % 0 mm 197.0 W/m2 CLR
16:10 -12.5 °C -15.7 °C 34496.6 hPa WNW 23.8 km/h 23.8 km/h 67 % 0 mm 218.0 W/m2 CLR
16:15 -12.4 °C -15.7 °C 34510.1 hPa WNW 20.8 km/h 20.8 km/h 66 % 0 mm 227.0 W/m2 CLR
16:20 -12.3 °C -15.7 °C 34496.6 hPa WNW 12.9 km/h 12.9 km/h 66 % 0 mm 230.0 W/m2 CLR
16:25 -12.3 °C -15.7 °C 34496.6 hPa WNW 23.8 km/h 23.8 km/h 66 % 0 mm 209.0 W/m2 CLR
16:30 -12.2 °C -15.7 °C 34496.6 hPa WNW 26.9 km/h 26.9 km/h 65 % 0 mm 264.0 W/m2 CLR
16:35 -12.1 °C -15.6 °C 34496.6 hPa WNW 20.9 km/h 20.9 km/h 65 % 0 mm 260.0 W/m2 CLR
16:40 -12.1 °C -15.5 °C 34496.6 hPa WNW 20.9 km/h 20.9 km/h 65 % 0 mm 199.0 W/m2 CLR
16:45 -12.1 °C -15.7 °C 34496.6 hPa WNW 23.8 km/h 23.8 km/h 64 % 7.62 mm 146.0 W/m2 RA
16:50 -12.1 °C -15.7 °C 34496.6 hPa WNW 15.6 km/h 15.6 km/h 64 % 7.62 mm 158.0 W/m2 CLR
16:55 -12.1 °C -15.6 °C 34496.6 hPa WNW 23.8 km/h 23.8 km/h 65 % 7.62 mm 156.0 W/m2 SCT
17:00 -12.1 °C -15.7 °C 34496.6 hPa WNW 15 km/h 15 km/h 64 % 7.62 mm 130.0 W/m2 OVC
17:05 -12 °C -15.6 °C 34496.6 hPa WNW 23.8 km/h 23.8 km/h 64 % 7.62 mm 111.0 W/m2 OVC
17:10 -12.1 °C -15.8 °C 34496.6 hPa WNW 20.9 km/h 20.9 km/h 63 % 7.62 mm 95.0 W/m2 OVC
17:15 -12.1 °C -15.9 °C 34496.6 hPa WNW 26.9 km/h 26.9 km/h 62 % 7.62 mm 90.0 W/m2 OVC
17:20 -12.1 °C -16.1 °C 34496.6 hPa WNW 20.9 km/h 20.9 km/h 61 % 7.62 mm 84.0 W/m2 OVC
17:25 -12.1 °C -15.8 °C 34496.6 hPa West 20.9 km/h 20.9 km/h 63 % 7.62 mm 76.0 W/m2 OVC
17:30 -12.1 °C -15.9 °C 34496.6 hPa West 17.9 km/h 17.9 km/h 62 % 7.62 mm 51.0 W/m2 OVC
17:35 -12.1 °C -15.9 °C 34496.6 hPa West 20.9 km/h 20.9 km/h 63 % 7.62 mm 30.0 W/m2 OVC
17:40 -12.2 °C -15.9 °C 34496.6 hPa West 11.9 km/h 11.9 km/h 63 % 7.62 mm 18.0 W/m2 OVC
17:45 -12.2 °C -15.9 °C 34496.6 hPa West 17.9 km/h 17.9 km/h 63 % 0 mm 11.0 W/m2 OVC
17:50 -12.3 °C -16.1 °C 34496.6 hPa Calm     62 % 0 mm 7.0 W/m2 OVC
17:55 -12.3 °C -16.3 °C 34510.1 hPa West 15 km/h 15 km/h 61 % 0 mm 5.0 W/m2 OVC
18:01 -12.3 °C -16.3 °C 34510.1 hPa West 20.9 km/h 20.9 km/h 61 % 0 mm 0.0 W/m2 OVC
18:06 -12.4 °C -16.3 °C 34510.1 hPa West 10.3 km/h 10.3 km/h 61 % 0 mm 0.0 W/m2 OVC
18:11 -12.4 °C -16.5 °C 34510.1 hPa West 15 km/h 15.3 km/h 60 % 0 mm 0.0 W/m2 CLR
18:16 -12.4 °C -16.5 °C 34510.1 hPa West 15 km/h 15 km/h 60 % 0 mm 0.0 W/m2 CLR
18:21 -12.4 °C -16.6 °C 34510.1 hPa West 20.9 km/h 20.9 km/h 60 % 0 mm 0.0 W/m2 CLR
18:26 -12.4 °C -16.6 °C 34520.3 hPa West 11.9 km/h 11.9 km/h 60 % 0 mm 0.0 W/m2 CLR
18:31 -12.5 °C -16.6 °C 34520.3 hPa West 17.9 km/h 17.9 km/h 60 % 0 mm 0.0 W/m2 CLR
18:36 -12.6 °C -16.6 °C 34520.3 hPa West 29.8 km/h 29.8 km/h 60 % 0 mm 0.0 W/m2 CLR
18:41 -12.6 °C -16.7 °C 34520.3 hPa WNW 23.8 km/h 23.8 km/h 60 % 0 mm 0.0 W/m2 CLR
18:46 -12.6 °C -16.7 °C 34520.3 hPa WNW 20.9 km/h 20.9 km/h 60 % 0 mm 0.0 W/m2 CLR
18:51 -12.6 °C -16.7 °C 34520.3 hPa WNW 32.8 km/h 32.8 km/h 60 % 0 mm 0.0 W/m2 CLR
18:56 -12.6 °C -16.7 °C 34520.3 hPa West 26.9 km/h 26.9 km/h 60 % 0 mm 0.0 W/m2 CLR
19:01 -12.6 °C -16.7 °C 34520.3 hPa West 32.8 km/h 32.8 km/h 60 % 0 mm 0.0 W/m2 CLR
19:06 -12.6 °C -16.7 °C 34533.8 hPa West 20.9 km/h 20.9 km/h 60 % 0 mm 0.0 W/m2 CLR
19:11 -12.7 °C -16.6 °C 34533.8 hPa West 38.8 km/h 38.8 km/h 61 % 0 mm 0.0 W/m2 CLR
19:16 -12.7 °C -16.7 °C 34533.8 hPa West 26.9 km/h 26.9 km/h 61 % 0 mm 0.0 W/m2 CLR
19:21 -12.7 °C -16.7 °C 34533.8 hPa West 29.8 km/h 29.8 km/h 61 % 0 mm 0.0 W/m2 CLR
19:26 -12.8 °C -16.6 °C 34533.8 hPa West 23.8 km/h 23.8 km/h 62 % 0 mm 0.0 W/m2 CLR
19:31 -12.8 °C -16.7 °C 34533.8 hPa West 33.6 km/h 33.6 km/h 62 % 0 mm 0.0 W/m2 CLR
19:36 -12.9 °C -16.6 °C 34533.8 hPa WNW 29.8 km/h 29.8 km/h 63 % 0 mm 0.0 W/m2 CLR
19:41 -12.9 °C -16.6 °C 34533.8 hPa WNW 32.8 km/h 32.8 km/h 63 % 0 mm 0.0 W/m2 CLR
19:46 -12.9 °C -16.8 °C 34544 hPa West 32.8 km/h 32.8 km/h 62 % 0 mm 0.0 W/m2 CLR
19:51 -12.9 °C -16.8 °C 34533.8 hPa West 23.3 km/h 23.3 km/h 62 % 0 mm 0.0 W/m2 CLR
19:56 -13 °C -16.8 °C 34544 hPa West 26.9 km/h 26.9 km/h 62 % 0 mm 0.0 W/m2 CLR
20:01 -13 °C -16.8 °C 34544 hPa West 9 km/h 9 km/h 62 % 0 mm 0.0 W/m2 CLR
20:06 -13.1 °C -16.8 °C 34544 hPa West 35.7 km/h 35.7 km/h 63 % 0 mm 0.0 W/m2 CLR
20:11 -13.1 °C -16.8 °C 34544 hPa West 26.9 km/h 26.9 km/h 63 % 0 mm 0.0 W/m2 CLR
20:16 -13.1 °C -16.8 °C 34544 hPa WNW 23.8 km/h 23.8 km/h 63 % 0 mm 0.0 W/m2 CLR
20:21 -13.2 °C -16.7 °C 34554.1 hPa WNW 29.8 km/h 29.8 km/h 64 % 0 mm 0.0 W/m2 CLR
20:26 -13.2 °C -16.8 °C 34554.1 hPa WNW 20.9 km/h 20.9 km/h 64 % 0 mm 0.0 W/m2 CLR
20:31 -13.2 °C -16.8 °C 34554.1 hPa West 9 km/h 9 km/h 64 % 0 mm 0.0 W/m2 CLR
20:36 -13.3 °C -16.8 °C 34554.1 hPa West 15 km/h 15 km/h 64 % 0 mm 0.0 W/m2 CLR
20:41 -13.3 °C -16.8 °C 34554.1 hPa West 23.8 km/h 23.8 km/h 64 % 0 mm 0.0 W/m2 CLR
20:46 -13.3 °C -16.8 °C 34554.1 hPa West 29.8 km/h 29.8 km/h 64 % 0 mm 0.0 W/m2 CLR
20:51 -13.3 °C -16.8 °C 34554.1 hPa WNW 20.9 km/h 20.9 km/h 64 % 0 mm 0.0 W/m2 CLR
20:56 -13.3 °C -17 °C 34554.1 hPa WNW 32.8 km/h 32.8 km/h 63 % 0 mm 0.0 W/m2 CLR
21:01 -13.3 °C -16.8 °C 34567.7 hPa West 23.8 km/h 23.8 km/h 65 % 0 mm 0.0 W/m2 CLR
21:06 -13.3 °C -17 °C 34567.7 hPa West 15 km/h 15 km/h 63 % 0 mm 0.0 W/m2 CLR
21:11 -13.4 °C -16.9 °C 34567.7 hPa West 20.9 km/h 20.9 km/h 64 % 0 mm 0.0 W/m2 CLR
21:16 -13.4 °C -16.9 °C 34567.7 hPa West 17.9 km/h 17.9 km/h 64 % 0 mm 0.0 W/m2 CLR
21:21 -13.4 °C -16.9 °C 34567.7 hPa West 23.8 km/h 23.8 km/h 64 % 0 mm 0.0 W/m2 CLR
21:26 -13.4 °C -16.9 °C 34567.7 hPa West 23.8 km/h 23.8 km/h 64 % 0 mm 0.0 W/m2 CLR
21:31 -13.4 °C -17 °C 34567.7 hPa West 6 km/h   64 % 0 mm 0.0 W/m2 CLR
21:36 -13.5 °C -16.9 °C 34567.7 hPa Calm     65 % 0 mm 0.0 W/m2 CLR
21:41 -13.6 °C -17 °C 34577.8 hPa Calm     65 % 0 mm 0.0 W/m2 CLR
21:46 -13.6 °C -17 °C 34577.8 hPa Calm     65 % 0 mm 0.0 W/m2 CLR
21:51 -13.6 °C -17.1 °C 34577.8 hPa Calm     65 % 0 mm 0.0 W/m2 CLR
21:56 -13.6 °C -17.1 °C 34577.8 hPa West 20.8 km/h 20.8 km/h 65 % 0 mm 0.0 W/m2 CLR
22:01 -13.6 °C -16.9 °C 34591.4 hPa West 17.9 km/h 17.9 km/h 66 % 0 mm 0.0 W/m2 CLR
22:06 -13.7 °C -17 °C 34577.8 hPa West 20.9 km/h 20.9 km/h 66 % 0 mm 0.0 W/m2 CLR
22:11 -13.7 °C -17 °C 34577.8 hPa West 26.9 km/h 26.9 km/h 66 % 0 mm 0.0 W/m2 CLR
22:16 -13.8 °C -16.9 °C 34577.8 hPa West 26.9 km/h 26.9 km/h 67 % 0 mm 0.0 W/m2 CLR
22:21 -13.8 °C -16.9 °C 34577.8 hPa West 29.8 km/h 29.8 km/h 67 % 0 mm 0.0 W/m2 CLR
22:27 -13.8 °C -16.9 °C 34577.8 hPa West 18.2 km/h 18.2 km/h 68 % 0 mm 0.0 W/m2 CLR
22:32 -13.8 °C -16.9 °C 34591.4 hPa WNW 32.8 km/h 32.8 km/h 68 % 7.62 mm 0.0 W/m2 RA
22:37 -13.9 °C -16.9 °C 34577.8 hPa West 23.8 km/h 23.8 km/h 68 % 7.62 mm 0.0 W/m2 CLR
22:42 -13.9 °C -17 °C 34577.8 hPa West 38.8 km/h 38.8 km/h 68 % 7.62 mm 0.0 W/m2 CLR
22:47 -13.9 °C -16.8 °C 34577.8 hPa West 25.9 km/h 25.9 km/h 69 % 7.62 mm 0.0 W/m2 CLR
22:52 -13.9 °C -16.9 °C 34577.8 hPa West 29.8 km/h 29.8 km/h 69 % 7.62 mm 0.0 W/m2 CLR
22:57 -13.9 °C -16.9 °C 34577.8 hPa West 18.2 km/h 20.4 km/h 69 % 7.62 mm 0.0 W/m2 CLR
23:02 -13.9 °C -16.9 °C 34591.4 hPa West 29.8 km/h 29.8 km/h 69 % 7.62 mm 0.0 W/m2 CLR
23:07 -14 °C -16.9 °C 34591.4 hPa West 15.6 km/h 15.6 km/h 69 % 7.62 mm 0.0 W/m2 CLR
23:12 -14 °C -16.9 °C 34591.4 hPa West 29.8 km/h 29.8 km/h 69 % 7.62 mm 0.0 W/m2 CLR
23:17 -14 °C -16.9 °C 34591.4 hPa West 23.8 km/h 23.8 km/h 69 % 7.62 mm 0.0 W/m2 CLR
23:22 -14.1 °C -16.9 °C 34601.5 hPa West 17.9 km/h 17.9 km/h 70 % 7.62 mm 0.0 W/m2 CLR
23:27 -14.1 °C -16.9 °C 34601.5 hPa Calm     70 % 7.62 mm 0.0 W/m2 CLR
23:32 -14.1 °C -16.9 °C 34601.5 hPa West 18.2 km/h 18.2 km/h 70 % 0 mm 0.0 W/m2 CLR
23:37 -14.1 °C -17 °C 34601.5 hPa West 20.8 km/h 20.8 km/h 70 % 0 mm 0.0 W/m2 CLR
23:42 -14.1 °C -17 °C 34601.5 hPa West 15 km/h 15 km/h 70 % 0 mm 0.0 W/m2 CLR
23:47 -14.1 °C -17 °C 34601.5 hPa West 20.9 km/h 20.9 km/h 70 % 0 mm 0.0 W/m2 CLR
23:52 -14.2 °C -17 °C 34601.5 hPa West 20.9 km/h 20.9 km/h 70 % 0 mm 0.0 W/m2 CLR
23:57 -14.2 °C -17 °C 34601.5 hPa West 20.9 km/h 20.9 km/h 70 % 0 mm 0.0 W/m2 CLR
Lo Temps de Massalio
Compliments of Weather Underground - 1.25 mb